Date String (YYYY-MM-DD hh:mm:ss) UTC,Instrument flags,Ambient pressure (hPa),Sample flow (lpm),Bypass flow (lpm),Sample temperature (°C),Ambient temperature (°C),ASC tube jacket temperature (°C),LED temperature (°C),Box temperature (°C),Sample RH (%),Span deviation,Mass concentration (μg/m³),Mass concentration (μg/m³),Mass concentration (μg/m³)
DateTimeUTC,F1_M11,P_M11,Q1_M11,Q2_M11,T1_M11,T2_M11,T3_M11,T4_M11,T5_M11,U1_M11,ZSPAN_M11,X0_M11,X2_M11,X1_M11
2022-09-24 07:00:00,,0829.9,4.99,0.00,30.4,28.9,00.0,39.1,32.2,11.2,0000.0,0006.36,0002.38,0001.82
2022-09-24 07:01:00,,0829.8,5.01,0.00,30.4,29.0,00.0,39.1,32.2,11.2,0000.0,0006.50,0002.41,0001.83
2022-09-24 07:02:00,,0829.9,5.00,0.00,30.4,29.0,00.0,39.1,32.2,11.1,0000.0,0007.44,0002.47,0001.84
2022-09-24 07:03:00,,0829.8,5.00,0.00,30.4,29.0,00.0,39.1,32.3,11.1,0000.0,0007.61,0002.46,0001.85
2022-09-24 07:04:00,,0829.8,5.01,0.00,30.4,29.0,00.0,39.2,32.3,11.1,0000.0,0007.59,0002.46,0001.87
2022-09-24 07:05:00,,0829.8,5.00,0.00,30.4,29.1,00.0,39.2,32.3,11.1,0000.0,0007.52,0002.48,0001.89
2022-09-24 07:06:00,,0829.9,4.99,0.00,30.5,29.1,00.0,39.2,32.3,11.1,0000.0,0007.36,0002.45,0001.90
2022-09-24 07:07:00,,0829.9,5.01,0.00,30.5,29.1,00.0,39.2,32.3,11.1,0000.0,0006.08,0002.45,0001.90
2022-09-24 07:08:00,,0829.9,5.00,0.00,30.5,29.1,00.0,39.2,32.3,11.0,0000.0,0005.15,0002.41,0001.90
2022-09-24 07:09:00,,0830.0,5.00,0.00,30.5,29.1,00.0,39.2,32.3,11.0,0000.0,0005.09,0002.40,0001.89
2022-09-24 07:10:00,,0830.0,5.01,0.00,30.5,29.2,00.0,39.2,32.3,11.2,0000.0,0005.03,0002.44,0001.90
2022-09-24 07:11:00,,0829.9,5.00,0.00,30.5,29.2,00.0,39.2,32.4,12.1,0000.0,0005.12,0002.46,0001.91
2022-09-24 07:12:00,,0829.8,4.99,0.00,30.5,29.2,00.0,39.2,32.4,11.8,0000.0,0004.97,0002.43,0001.91
2022-09-24 07:13:00,,0829.8,5.02,0.00,30.5,29.1,00.0,39.2,32.4,11.6,0000.0,0004.16,0002.42,0001.92
2022-09-24 07:14:00,,0829.8,4.99,0.00,30.5,29.1,00.0,39.3,32.4,11.5,0000.0,0003.82,0002.46,0001.92
2022-09-24 07:15:00,,0829.8,5.00,0.00,30.6,29.1,00.0,39.3,32.4,11.4,0000.0,0003.96,0002.48,0001.92
2022-09-24 07:16:00,,0829.9,4.99,0.00,30.6,29.2,00.0,39.3,32.4,11.3,0000.0,0004.18,0002.50,0001.92
2022-09-24 07:17:00,,0829.9,4.99,0.00,30.6,29.2,00.0,39.3,32.4,11.2,0000.0,0004.84,0002.53,0001.91
2022-09-24 07:18:00,,0829.9,5.01,0.00,30.6,29.2,00.0,39.3,32.4,11.2,0000.0,0004.88,0002.55,0001.91
2022-09-24 07:19:00,,0829.9,5.00,0.00,30.6,29.2,00.0,39.3,32.4,11.2,0000.0,0005.87,0002.56,0001.92
2022-09-24 07:20:00,,0829.9,5.00,0.00,30.6,29.2,00.0,39.3,32.4,11.2,0000.0,0006.11,0002.54,0001.92
2022-09-24 07:21:00,,0829.9,5.00,0.00,30.6,29.2,00.0,39.3,32.4,11.6,0000.0,0006.13,0002.53,0001.92
2022-09-24 07:22:00,,0829.9,5.00,0.00,30.6,29.2,00.0,39.3,32.5,11.7,0000.0,0006.01,0002.52,0001.91
2022-09-24 07:23:00,,0829.9,5.01,0.00,30.6,29.2,00.0,39.4,32.4,11.7,0000.0,0006.03,0002.51,0001.90
2022-09-24 07:24:00,,0829.8,5.00,0.00,30.6,29.2,00.0,39.4,32.5,11.5,0000.0,0006.25,0002.52,0001.90
2022-09-24 07:25:00,,0829.9,5.01,0.00,30.6,29.2,00.0,39.4,32.5,11.7,0000.0,0006.32,0002.49,0001.89
2022-09-24 07:26:00,,0829.9,4.99,0.00,30.7,29.2,00.0,39.4,32.5,11.7,0000.0,0006.37,0002.51,0001.89
2022-09-24 07:27:00,,0829.8,5.00,0.00,30.7,29.2,00.0,39.4,32.5,11.6,0000.0,0006.36,0002.57,0001.90
2022-09-24 07:28:00,,0829.8,5.00,0.00,30.7,29.2,00.0,39.4,32.5,11.8,0000.0,0005.88,0002.54,0001.89
2022-09-24 07:29:00,,0829.8,4.99,0.00,30.7,29.2,00.0,39.4,32.5,11.9,0000.0,0005.77,0002.51,0001.88
2022-09-24 07:30:00,,0829.8,5.01,0.00,30.7,29.2,00.0,39.4,32.5,11.3,0000.0,0005.06,0002.52,0001.88
2022-09-24 07:31:00,,0829.9,4.99,0.00,30.7,29.2,00.0,39.4,32.5,11.3,0000.0,0004.59,0002.54,0001.87
2022-09-24 07:32:00,,0830.0,4.99,0.00,30.7,29.2,00.0,39.4,32.5,11.4,0000.0,0004.46,0002.52,0001.86
2022-09-24 07:33:00,,0830.0,5.01,0.00,30.7,29.2,00.0,39.4,32.5,11.5,0000.0,0004.46,0002.52,0001.85
2022-09-24 07:34:00,,0830.1,5.00,0.00,30.7,29.2,00.0,39.4,32.5,11.3,0000.0,0004.57,0002.58,0001.85
2022-09-24 07:35:00,,0830.1,5.00,0.00,30.7,29.2,00.0,39.4,32.5,11.4,0000.0,0004.41,0002.56,0001.83
2022-09-24 07:36:00,,0830.1,5.01,0.00,30.7,29.2,00.0,39.4,32.5,11.4,0000.0,0004.15,0002.52,0001.83
2022-09-24 07:37:00,,0830.1,4.99,0.00,30.7,29.2,00.0,39.5,32.5,11.2,0000.0,0004.56,0002.52,0001.82
2022-09-24 07:38:00,,0830.0,5.01,0.00,30.7,29.2,00.0,39.5,32.5,11.1,0000.0,0005.43,0002.49,0001.80
2022-09-24 07:39:00,,0830.1,4.98,0.00,30.7,29.2,00.0,39.5,32.5,11.2,0000.0,0007.07,0002.56,0001.81
2022-09-24 07:40:00,,0830.1,5.01,0.00,30.7,29.2,00.0,39.5,32.5,11.1,0000.0,0007.67,0002.61,0001.81
2022-09-24 07:41:00,,0830.1,4.99,0.00,30.7,29.2,00.0,39.5,32.5,11.0,0000.0,0008.35,0002.65,0001.81
2022-09-24 07:42:00,,0830.1,5.00,0.00,30.7,29.2,00.0,39.5,32.5,10.8,0000.0,0008.37,0002.65,0001.81
2022-09-24 07:43:00,,0830.1,5.00,0.00,30.7,29.2,00.0,39.5,32.5,10.6,0000.0,0008.44,0002.70,0001.81
2022-09-24 07:44:00,,0830.1,5.00,0.00,30.7,29.2,00.0,39.5,32.5,10.7,0000.0,0008.51,0002.73,0001.82
2022-09-24 07:45:00,,0830.0,5.00,0.00,30.7,29.2,00.0,39.5,32.5,11.3,0000.0,0008.54,0002.74,0001.82
2022-09-24 07:46:00,,0830.0,5.00,0.00,30.7,29.2,00.0,39.5,32.5,11.1,0000.0,0008.59,0002.79,0001.82
2022-09-24 07:47:00,,0830.1,5.00,0.00,30.7,29.1,00.0,39.5,32.5,10.8,0000.0,0008.64,0002.81,0001.83
2022-09-24 07:48:00,,0830.1,5.00,0.00,30.7,29.1,00.0,39.5,32.5,10.8,0000.0,0008.30,0002.79,0001.83
2022-09-24 07:49:00,,0830.0,5.00,0.00,30.7,29.1,00.0,39.5,32.5,10.8,0000.0,0007.80,0002.78,0001.83
2022-09-24 07:50:00,,0830.0,5.01,0.00,30.7,29.1,00.0,39.5,32.5,10.6,0000.0,0006.59,0002.74,0001.82
2022-09-24 07:51:00,,0829.9,4.99,0.00,30.7,29.1,00.0,39.5,32.5,10.6,0000.0,0005.92,0002.73,0001.82
2022-09-24 07:52:00,,0829.9,5.01,0.00,30.7,29.1,00.0,39.5,32.5,10.7,0000.0,0004.69,0002.70,0001.82
2022-09-24 07:53:00,,0829.9,4.99,0.00,30.7,29.1,00.0,39.5,32.5,10.7,0000.0,0004.71,0002.73,0001.82
2022-09-24 07:54:00,,0830.0,5.01,0.00,30.7,29.1,00.0,39.5,32.5,10.7,0000.0,0004.69,0002.70,0001.81
2022-09-24 07:55:00,,0830.1,4.99,0.00,30.7,29.1,00.0,39.5,32.5,10.8,0000.0,0004.62,0002.68,0001.81
2022-09-24 07:56:00,,0830.1,5.01,0.00,30.7,29.1,00.0,39.5,32.5,10.9,0000.0,0005.50,0002.68,0001.81
2022-09-24 07:57:00,,0830.0,5.01,0.00,30.7,29.1,00.0,39.5,32.5,10.8,0000.0,0007.49,0002.64,0001.80
2022-09-24 07:58:00,,0829.9,4.99,0.00,30.7,29.1,00.0,39.5,32.5,10.7,0000.0,0008.10,0002.65,0001.81
2022-09-24 07:59:00,,0830.0,5.01,0.00,30.7,29.1,00.0,39.5,32.5,10.8,0000.0,0008.36,0002.68,0001.82
